Location: Springville
(37.3745°N, 89.2676°W)
Time: 15:15:50
(UTC+00:00)

CZ-2D R/B - Pass Details

Date: 29 October 2020
Orbit: 522 x 537 km, 97.4° (Epoch: 03 December)

Event Time Altitude Azimuth Distance (km) Brightness Sun altitude
Rises 23:39:59 0° 140° (SE) 2,649 6.5 -8.2°
Reaches altitude 10° 23:42:20 10° 127° (SE) 1,762 5.5 -8.7°
Maximum altitude 23:45:29 25° 71° (ENE) 1,088 4.2 -9.3°
Drops below altitude 10° 23:48:38 10° 15° (NNE) 1,767 5.7 -9.9°
Sets 23:50:59 0° 3° (N) 2,659 6.7 -10.4°
